Weather History for KTOR - December, 2012

Change the Weather History Date:

Sunday, December 9, 2012

  Actual Average Record
Temperature  
Mean Temperature 10 °F 27 °F  
Max Temperature 21 °F 40 °F 62 °F (2006)
Min Temperature -1 °F 15 °F -21 °F (2009)
Degree Days  
Heating Degree Days 55 38  
Month to date heating degree days 232 331  
Since 1 July heating degree days 1575 1914  
Cooling Degree Days 0 0  
Month to date cooling degree days 0 0  
Year to date cooling degree days 1021 678  
Moisture  
Dew Point 1 °F    
Average Humidity 62    
Maximum Humidity 79    
Minimum Humidity 45    
Precipitation  
Precipitation 0.00 in 0.02 in 0.06 in (2007)
Month to date precipitation T 0.13  
Year to date precipitation 7.00 13.97  
Sea Level Pressure  
Sea Level Pressure 30.27 in    
Wind  
Wind Speed 11 mph (NW)    
Max Wind Speed 26 mph    
Max Gust Speed 36 mph    
Visibility 10 miles    
Events      
T = Trace of Precipitation, MM = Missing Value Source: NWS Daily Summary

Daily Weather History Graph

Daily Weather History Graph

Search for Another Location

Airport or City:

Trip Planner

Search our weather history database for the weather conditions in past years. The results will help you decide how hot, cold, wet, or windy it might be!

Date:

Astronomy

Dec. 09, 2012 Rise Set
Actual Time 7:13 AM MST 4:24 PM MST
Civil Twilight 6:41 AM MST 4:56 PM MST
Nautical Twilight 6:06 AM MST 5:31 PM MST
Astronomical Twilight 5:32 AM MST 6:05 PM MST
Moon 2:46 AM MST (12/9) 1:35 PM MST (12/9)
Length of Visible Light 10h 14m
Length of Day
9h 11m
Waning Crescent, 18% of the Moon is Illuminated
Dec 9
Waning Crescent
Dec 13
New
Dec 19
First Quarter
Dec 28
Full
Jan 4
Last Quarter

Hourly Weather History & Observations

Time (MST) Temp. Windchill Dew Point Humidity Pressure Visibility Wind Dir Wind Speed Gust Speed Precip Events Conditions
12:53 AM 16.0 °F -1.3 °F 7.0 °F 68% 30.03 in 10.0 mi NW 20.7 mph 27.6 mph N/A   Clear
1:53 AM 14.0 °F -4.3 °F 5.0 °F 67% 30.08 in 10.0 mi NW 21.9 mph 31.1 mph N/A   Partly Cloudy
2:20 AM 12.2 °F -7.1 °F 3.2 °F 67% 30.00 in 10.0 mi NW 23.0 mph 33.4 mph N/A   Mostly Cloudy
2:53 AM 12.0 °F -5.1 °F 3.9 °F 70% 30.14 in 10.0 mi NW 17.3 mph 29.9 mph N/A   Mostly Cloudy
3:05 AM 12.2 °F -3.7 °F 3.2 °F 67% 30.02 in 10.0 mi NW 15.0 mph 25.3 mph N/A   Scattered Clouds
3:53 AM 10.9 °F -5.4 °F 3.0 °F 70% 30.18 in 10.0 mi WNW 15.0 mph 26.5 mph N/A   Clear
5:53 AM 10.9 °F -5.9 °F 3.0 °F 70% 30.27 in 10.0 mi NW 16.1 mph - N/A   Partly Cloudy
6:53 AM 10.9 °F -5.9 °F 1.9 °F 67% 30.30 in 10.0 mi NW 16.1 mph 23.0 mph N/A   Clear
7:53 AM 10.0 °F -7.1 °F -0.0 °F 64% 30.33 in 10.0 mi NW 16.1 mph 23.0 mph N/A   Clear
8:53 AM 12.0 °F -3.4 °F -0.0 °F 59% 30.37 in 10.0 mi NW 13.8 mph - N/A   Partly Cloudy
9:53 AM 14.0 °F 0.5 °F 1.0 °F 56% 30.40 in 10.0 mi NW 11.5 mph - N/A   Clear
10:53 AM 16.0 °F 1.1 °F 1.0 °F 52% 30.40 in 10.0 mi NW 15.0 mph - N/A   Clear
11:53 AM 19.0 °F 6.1 °F 1.0 °F 46% 30.37 in 10.0 mi NNW 12.7 mph 21.9 mph N/A   Clear
12:53 PM 19.9 °F 5.7 °F 1.0 °F 44% 30.35 in 10.0 mi NNW 16.1 mph 21.9 mph N/A   Clear
1:53 PM 19.9 °F 7.9 °F 1.9 °F 46% 30.35 in 10.0 mi NNW 11.5 mph 24.2 mph N/A   Clear
2:53 PM 19.0 °F 7.5 °F 1.9 °F 47% 30.37 in 10.0 mi NNW 10.4 mph - N/A   Clear
3:53 PM 17.1 °F 5.8 °F 1.9 °F 52% 30.38 in 10.0 mi NW 9.2 mph - N/A   Clear
4:53 PM 14.0 °F 6.5 °F 1.0 °F 56% 30.37 in 10.0 mi NNW 4.6 mph - N/A   Clear
5:53 PM 12.0 °F 5.9 °F 1.9 °F 64% 30.37 in 10.0 mi WSW 3.5 mph - N/A   Clear
6:53 PM 12.0 °F - 1.9 °F 64% 30.35 in 10.0 mi Calm Calm - N/A   Clear
7:53 PM 7.0 °F 0.1 °F -0.0 °F 73% 30.34 in 10.0 mi South 3.5 mph - N/A   Clear
8:53 PM 1.9 °F - -4.0 °F 76% 30.32 in 10.0 mi Calm Calm - N/A   Clear
9:53 PM 6.1 °F -6.8 °F -0.9 °F 73% 30.26 in 10.0 mi SE 8.1 mph - N/A   Clear
10:53 PM 3.0 °F -9.3 °F -2.0 °F 80% 30.22 in 10.0 mi ESE 6.9 mph - N/A   Clear
11:53 PM 1.0 °F -10.3 °F -5.1 °F 75% 30.18 in 10.0 mi ESE 5.8 mph - N/A   Clear